This demonstration page uses our WeatherBlox Daily Observations layout. Learn more.

Left ArrowRight Arrow

Hourly Observations for December 17, 2017

Temp ( °F °C ) Dew Point ( °F °C ) Humidity (%) Winds ( mph kmh ) Pressure ( in mb ) Visibility ( mi km ) Precip ( " mm )
12:53 am 00:53 Clear 30 -1.1 28 -2.2 92 92 Calm 30.28 1025 10 16 0.00 0.00
1:53 am 01:53 Clear 29 -1.7 27 -2.8 92 92 Calm 30.27 1025 8 13 0.00 0.00
2:53 am 02:53 Clear 30 -1.1 28 -2.2 92 92 Calm 30.26 1025 10 16 0.00 0.00
3:53 am 03:53 Clear 29 -1.7 29 -1.7 100 100 NNW 3 6 30.24 1024 8 13 0.00 0.00
4:53 am 04:53 Clear 30 -1.1 29 -1.7 96 96 Calm 30.23 1024 7 11 0.00 0.00
5:53 am 05:53 Clear 30 -1.1 29 -1.7 96 96 Calm 30.22 1024 7 11 0.00 0.00
6:53 am 06:53 Clear 30 -1.1 29 -1.7 96 96 Calm 30.24 1024 7 11 0.00 0.00
7:53 am 07:53 Sunny 34 1.1 32 0 92 92 Calm 30.25 1024 7 11 0.00 0.00
8:53 am 08:53 Sunny 36 2.2 33 0.6 89 89 N 6 9 30.22 1023 8 13 0.00 0.00
9:53 am 09:53 Cloudy 41 5 34 1.1 76 76 Calm 30.32 1027 10 16 0.00 0.00
10:53 am 10:53 Partly Cloudy 45 7.2 31 -0.6 58 58 Calm 30.30 1026 10 16 0.00 0.00
11:53 am 11:53 Cloudy 48 8.9 33 0.6 56 56 E 5 7 30.25 1024 10 16 0.00 0.00
12:53 pm 12:53 Cloudy with Light Rain 48 8.9 35 1.7 61 61 ESE 3 6 30.23 1024 10 16 0.00 0.03
1:53 pm 13:53 Cloudy with Light Rain 46 7.8 41 5 83 83 S 3 6 30.19 1023 8 13 0.01 0.25
2:29 pm 14:29 Cloudy with Light Rain 45 7.2 41 5 86 86 E 3 6 30.21 1023 5 8 0.07 1.78
2:53 pm 14:53 Cloudy with Light Rain 45 7.2 41 5 86 86 SE 3 6 30.19 1022 7 11 0.08 2.03
3:53 pm 15:53 Cloudy with Light Rain 44 6.7 43 6.1 96 96 Calm 30.19 1022 4 6 0.01 0.25
4:53 pm 16:53 Cloudy 45 7.2 44 6.7 97 97 Calm 30.18 1022 7 11 0.00 0.03
5:53 pm 17:53 Cloudy with Mist and Fog 45 7.2 45 7.2 100 100 NNE 6 9 30.18 1022 6 10 0.00 0.00
6:12 pm 18:12 Cloudy 45 7.2 44 6.7 97 97 NNE 7 11 30.21 1023 7 11 0.00 0.00
6:53 pm 18:53 Cloudy 45 7.2 44 6.7 97 97 NE 6 9 30.19 1022 7 11 0.00 0.00
7:53 pm 19:53 Cloudy 46 7.8 45 7.2 96 96 Calm 30.20 1023 7 11 0.00 0.00
8:53 pm 20:53 Cloudy with Mist and Fog 46 7.8 45 7.2 96 96 NNE 3 6 30.18 1022 5 8 0.00 0.03
9:30 pm 21:30 Cloudy with Mist and Fog 46 7.8 46 7.8 100 100 Calm 30.21 1023 6 10 0.00 0.00
9:53 pm 21:53 Cloudy with Mist and Fog 46 7.8 46 7.8 100 100 Calm 30.18 1022 6 10 0.00 0.00
10:53 pm 22:53 Cloudy with Mist and Fog 47 8.3 46 7.8 97 97 Calm 30.18 1022 6 10 0.00 0.00
11:53 pm 23:53 Cloudy with Mist and Fog 47 8.3 46 7.8 97 97 Calm 30.17 1022 6 10 0.00 0.03

Powered by AerisWeather